Hall Beach,

4:18 AM EDT on May 27, 2017 (GMT -0400)
Hall Beach

Weather History for CYUX - April, 2013

Change the Weather History Date:

Monday, April 8, 2013

  Actual Average Record
Temperature  
Mean Temperature 7 °F -  
Max Temperature 21 °F 9 °F 23 °F (2017)
Min Temperature -7 °F -10 °F -31 °F (2015)
Degree Days  
Heating Degree Days 58    
Moisture  
Dew Point 7 °F    
Average Humidity 88    
Maximum Humidity 93    
Minimum Humidity 78    
Precipitation  
Precipitation 0.00 in 0.02 in - ()
Sea Level Pressure  
Sea Level Pressure 30.23 in    
Wind  
Wind Speed 11 mph ()    
Max Wind Speed 18 mph    
Max Gust Speed -    
Visibility 11.6 miles    
Events Snow    
Averages and records for this station are not official NWS values.
T = Trace of Precipitation, MM = Missing Value Source: Averaged Metar Reports

Daily Weather History Graph

Daily Weather History Graph

Search for Another Location

Airport or City:

Trip Planner

Search our weather history database for the weather conditions in past years. The results will help you decide how hot, cold, wet, or windy it might be!

Date:

Astronomy

Apr. 08, 2013 Rise Set
Actual Time 5:59 AM EDT 8:56 PM EDT
Civil Twilight 4:52 AM EDT 10:04 PM EDT
Nautical Twilight 3:05 AM EDT 11:56 PM EDT
Astronomical Twilight Sun does not set Sun does not set
Moon 5:35 AM EDT (4/8) 7:00 PM EDT (4/8)
Length of Visible Light 17h 11m
Length of Day
14h 57m
Waning Crescent, 3% of the Moon is Illuminated
Apr 8
Waning Crescent
Apr 10
New
Apr 18
First Quarter
Apr 25
Full
May 2
Last Quarter

Hourly Weather History & Observations

Time (EDT) Temp. Windchill Dew Point Humidity Pressure Visibility Wind Dir Wind Speed Gust Speed Precip Events Conditions
12:00 AM -0.4 °F -20.5 °F -5.8 °F 78% 30.03 in 9.0 mi North 16.1 mph - N/A   Clear
1:00 AM -2.2 °F -21.5 °F -5.8 °F 85% 30.04 in 9.0 mi North 13.8 mph - N/A   Clear
2:00 AM -2.2 °F -22.9 °F -7.6 °F 78% 30.05 in 9.0 mi North 16.1 mph - N/A   Clear
3:00 AM -2.2 °F -24.1 °F -7.6 °F 78% 30.07 in 9.0 mi North 18.4 mph - N/A   Clear
4:00 AM -4.0 °F -23.7 °F -7.6 °F 85% 30.07 in 9.0 mi North 13.8 mph - N/A   Clear
5:00 AM -5.8 °F -27.5 °F -9.4 °F 84% 30.10 in 9.0 mi North 16.1 mph - N/A   Clear
6:00 AM -7.6 °F -29.1 °F -11.2 °F 84% 30.12 in 9.0 mi North 15.0 mph - N/A   Clear
6:09 AM -7.6 °F -28.3 °F -11.2 °F 84% 30.12 in 9.0 mi North 13.8 mph - N/A   Partly Cloudy
6:18 AM -7.6 °F -28.3 °F -11.2 °F 84% 30.12 in 9.0 mi North 13.8 mph - N/A   Mostly Cloudy
7:00 AM -0.4 °F -16.7 °F -4.0 °F 85% 30.13 in 9.0 mi North 10.4 mph - N/A   Overcast
7:49 AM 1.4 °F -14.5 °F -0.4 °F 92% 30.15 in 9.0 mi North 10.4 mph - N/A   Overcast
8:00 AM 1.4 °F -15.3 °F -0.4 °F 92% 30.15 in 12.0 mi North 11.5 mph - N/A   Overcast
9:00 AM 5.0 °F -12.3 °F 3.2 °F 92% 30.17 in 15.0 mi North 13.8 mph - N/A   Overcast
10:00 AM 8.6 °F -7.0 °F 5.0 °F 85% 30.18 in 12.0 mi North 12.7 mph - N/A Snow Light Snow
10:14 AM 8.6 °F -7.0 °F 5.0 °F 85% 30.19 in 12.0 mi North 12.7 mph - N/A Snow Light Snow
11:00 AM 10.4 °F -4.1 °F 6.8 °F 85% 30.20 in 12.0 mi North 11.5 mph - N/A Snow Light Snow
11:30 AM 12.2 °F -1.0 °F 10.4 °F 92% 30.21 in 12.0 mi North 10.4 mph - N/A Snow Light Snow
12:00 PM 14.0 °F 1.2 °F 10.4 °F 86% 30.22 in 15.0 mi NNE 10.4 mph - N/A Snow Light Snow
1:00 PM 15.8 °F - 14.0 °F 93% 30.24 in 15.0 mi Calm Calm - N/A Snow Light Snow
1:32 PM 19.4 °F 8.6 °F 17.6 °F 93% 30.24 in 15.0 mi ESE 9.2 mph - N/A   Overcast
2:00 PM 19.4 °F 7.2 °F 17.6 °F 93% 30.25 in 15.0 mi SE 11.5 mph - N/A   Overcast
3:00 PM 19.4 °F 7.9 °F 17.6 °F 93% 30.28 in 15.0 mi SE 10.4 mph - N/A   Mostly Cloudy
3:08 PM 21.2 °F 10.9 °F 17.6 °F 86% 30.28 in 15.0 mi ESE 9.2 mph - N/A   Mostly Cloudy
3:24 PM 21.2 °F 11.7 °F 17.6 °F 86% 30.28 in 15.0 mi ESE 8.1 mph - N/A   Partly Cloudy
4:00 PM 21.2 °F 10.9 °F 17.6 °F 86% 30.29 in 15.0 mi ESE 9.2 mph - N/A   Partly Cloudy
5:00 PM 21.2 °F 9.5 °F 17.6 °F 86% 30.31 in 15.0 mi East 11.5 mph - N/A   Partly Cloudy
6:00 PM 17.6 °F 9.3 °F 15.8 °F 93% 30.32 in 15.0 mi East 5.8 mph - N/A   Partly Cloudy
7:00 PM 17.6 °F 7.3 °F 15.8 °F 93% 30.34 in 15.0 mi East 8.1 mph - N/A   Mostly Cloudy
8:00 PM 17.6 °F 7.3 °F 15.8 °F 93% 30.35 in 15.0 mi East 8.1 mph - N/A   Mostly Cloudy
8:37 PM 19.4 °F 9.5 °F 17.6 °F 93% 30.37 in 9.0 mi East 8.1 mph - N/A   Overcast
8:58 PM 19.4 °F 11.5 °F 17.6 °F 93% 30.38 in 9.0 mi East 5.8 mph - N/A Snow Light Snow
9:00 PM 19.4 °F 11.5 °F 17.6 °F 93% 30.38 in 9.0 mi East 5.8 mph - N/A Snow Light Snow
9:07 PM 19.4 °F 10.4 °F 17.6 °F 93% 30.38 in 9.0 mi East 6.9 mph - N/A   Overcast
10:00 PM 21.2 °F 11.7 °F 19.4 °F 93% 30.39 in 9.0 mi East 8.1 mph - N/A   Overcast
11:00 PM 19.4 °F 7.9 °F 17.6 °F 93% 30.39 in 9.0 mi East 10.4 mph - N/A   Overcast
11:42 PM 17.6 °F 6.4 °F 15.8 °F 93% 30.40 in 9.0 mi East 9.2 mph - N/A   Scattered Clouds